Index of /20260415/WXO-DD/model_rdps/10km/18/020
Name Last modified Size Description
Parent Directory -
20260415T18Z_MSC_RDPS_AbsoluteVorticity_IsbL-0250_RLatLon0.09_PT020H.grib2 2026-04-15 20:45 591K
20260415T18Z_MSC_RDPS_AbsoluteVorticity_IsbL-0500_RLatLon0.09_PT020H.grib2 2026-04-15 20:45 559K
20260415T18Z_MSC_RDPS_AbsoluteVorticity_IsbL-0700_RLatLon0.09_PT020H.grib2 2026-04-15 20:45 611K
20260415T18Z_MSC_RDPS_AbsoluteVorticity_IsbL-0850_RLatLon0.09_PT020H.grib2 2026-04-15 20:45 785K
20260415T18Z_MSC_RDPS_AirTemp_AGL-120m_RLatLon0.09_PT020H.grib2 2026-04-15 20:45 388K
20260415T18Z_MSC_RDPS_AirTemp_AGL-2m_RLatLon0.09_PT020H.grib2 2026-04-15 20:45 652K
20260415T18Z_MSC_RDPS_AirTemp_AGL-40m_RLatLon0.09_PT020H.grib2 2026-04-15 20:45 420K
20260415T18Z_MSC_RDPS_AirTemp_AGL-80m_RLatLon0.09_PT020H.grib2 2026-04-15 20:45 397K
20260415T18Z_MSC_RDPS_AirTemp_IsbL-0001_RLatLon0.09_PT020H.grib2 2026-04-15 20:45 233K
20260415T18Z_MSC_RDPS_AirTemp_IsbL-0005_RLatLon0.09_PT020H.grib2 2026-04-15 20:45 251K
20260415T18Z_MSC_RDPS_AirTemp_IsbL-0010_RLatLon0.09_PT020H.grib2 2026-04-15 20:45 300K
20260415T18Z_MSC_RDPS_AirTemp_IsbL-0020_RLatLon0.09_PT020H.grib2 2026-04-15 20:45 321K
20260415T18Z_MSC_RDPS_AirTemp_IsbL-0030_RLatLon0.09_PT020H.grib2 2026-04-15 20:45 380K
20260415T18Z_MSC_RDPS_AirTemp_IsbL-0050_RLatLon0.09_PT020H.grib2 2026-04-15 20:45 333K
20260415T18Z_MSC_RDPS_AirTemp_IsbL-0100_RLatLon0.09_PT020H.grib2 2026-04-15 20:45 390K
20260415T18Z_MSC_RDPS_AirTemp_IsbL-0150_RLatLon0.09_PT020H.grib2 2026-04-15 20:45 401K
20260415T18Z_MSC_RDPS_AirTemp_IsbL-0175_RLatLon0.09_PT020H.grib2 2026-04-15 20:45 399K
20260415T18Z_MSC_RDPS_AirTemp_IsbL-0200_RLatLon0.09_PT020H.grib2 2026-04-15 20:45 404K
20260415T18Z_MSC_RDPS_AirTemp_IsbL-0225_RLatLon0.09_PT020H.grib2 2026-04-15 20:45 406K
20260415T18Z_MSC_RDPS_AirTemp_IsbL-0250_RLatLon0.09_PT020H.grib2 2026-04-15 20:45 416K
20260415T18Z_MSC_RDPS_AirTemp_IsbL-0275_RLatLon0.09_PT020H.grib2 2026-04-15 20:45 400K
20260415T18Z_MSC_RDPS_AirTemp_IsbL-0300_RLatLon0.09_PT020H.grib2 2026-04-15 20:45 432K
20260415T18Z_MSC_RDPS_AirTemp_IsbL-0350_RLatLon0.09_PT020H.grib2 2026-04-15 20:45 418K
20260415T18Z_MSC_RDPS_AirTemp_IsbL-0400_RLatLon0.09_PT020H.grib2 2026-04-15 20:45 417K
20260415T18Z_MSC_RDPS_AirTemp_IsbL-0450_RLatLon0.09_PT020H.grib2 2026-04-15 20:45 391K
20260415T18Z_MSC_RDPS_AirTemp_IsbL-0500_RLatLon0.09_PT020H.grib2 2026-04-15 20:45 403K
20260415T18Z_MSC_RDPS_AirTemp_IsbL-0550_RLatLon0.09_PT020H.grib2 2026-04-15 20:45 420K
20260415T18Z_MSC_RDPS_AirTemp_IsbL-0600_RLatLon0.09_PT020H.grib2 2026-04-15 20:45 439K
20260415T18Z_MSC_RDPS_AirTemp_IsbL-0650_RLatLon0.09_PT020H.grib2 2026-04-15 20:45 450K
20260415T18Z_MSC_RDPS_AirTemp_IsbL-0700_RLatLon0.09_PT020H.grib2 2026-04-15 20:45 474K
20260415T18Z_MSC_RDPS_AirTemp_IsbL-0750_RLatLon0.09_PT020H.grib2 2026-04-15 20:45 405K
20260415T18Z_MSC_RDPS_AirTemp_IsbL-0800_RLatLon0.09_PT020H.grib2 2026-04-15 20:45 455K
20260415T18Z_MSC_RDPS_AirTemp_IsbL-0850_RLatLon0.09_PT020H.grib2 2026-04-15 20:45 505K
20260415T18Z_MSC_RDPS_AirTemp_IsbL-0875_RLatLon0.09_PT020H.grib2 2026-04-15 20:45 523K
20260415T18Z_MSC_RDPS_AirTemp_IsbL-0900_RLatLon0.09_PT020H.grib2 2026-04-15 20:45 533K
20260415T18Z_MSC_RDPS_AirTemp_IsbL-0925_RLatLon0.09_PT020H.grib2 2026-04-15 20:45 535K
20260415T18Z_MSC_RDPS_AirTemp_IsbL-0950_RLatLon0.09_PT020H.grib2 2026-04-15 20:45 536K
20260415T18Z_MSC_RDPS_AirTemp_IsbL-0970_RLatLon0.09_PT020H.grib2 2026-04-15 20:45 532K
20260415T18Z_MSC_RDPS_AirTemp_IsbL-0985_RLatLon0.09_PT020H.grib2 2026-04-15 20:45 521K
20260415T18Z_MSC_RDPS_AirTemp_IsbL-1000_RLatLon0.09_PT020H.grib2 2026-04-15 20:45 516K
20260415T18Z_MSC_RDPS_AirTemp_IsbL-1015_RLatLon0.09_PT020H.grib2 2026-04-15 20:45 514K
20260415T18Z_MSC_RDPS_Albedo_Sfc_RLatLon0.09_PT020H.grib2 2026-04-15 20:45 166K
20260415T18Z_MSC_RDPS_CAPE_Sfc_RLatLon0.09_PT020H.grib2 2026-04-15 20:45 1.7M
20260415T18Z_MSC_RDPS_CIN_Sfc_RLatLon0.09_PT020H.grib2 2026-04-15 20:45 1.2M
20260415T18Z_MSC_RDPS_CloudWater_EAtm_RLatLon0.09_PT020H.grib2 2026-04-15 20:45 210K
20260415T18Z_MSC_RDPS_ConvectivePrecip-Accum_Sfc_RLatLon0.09_PT020H.grib2 2026-04-15 20:45 792K
20260415T18Z_MSC_RDPS_DewPointDepression_AGL-2m_RLatLon0.09_PT020H.grib2 2026-04-15 20:45 404K
20260415T18Z_MSC_RDPS_DewPointDepression_IsbL-0001_RLatLon0.09_PT020H.grib2 2026-04-15 20:45 193
20260415T18Z_MSC_RDPS_DewPointDepression_IsbL-0005_RLatLon0.09_PT020H.grib2 2026-04-15 20:45 193
20260415T18Z_MSC_RDPS_DewPointDepression_IsbL-0010_RLatLon0.09_PT020H.grib2 2026-04-15 20:45 193
20260415T18Z_MSC_RDPS_DewPointDepression_IsbL-0020_RLatLon0.09_PT020H.grib2 2026-04-15 20:45 193
20260415T18Z_MSC_RDPS_DewPointDepression_IsbL-0030_RLatLon0.09_PT020H.grib2 2026-04-15 20:45 11K
20260415T18Z_MSC_RDPS_DewPointDepression_IsbL-0050_RLatLon0.09_PT020H.grib2 2026-04-15 20:45 108K
20260415T18Z_MSC_RDPS_DewPointDepression_IsbL-0100_RLatLon0.09_PT020H.grib2 2026-04-15 20:45 122K
20260415T18Z_MSC_RDPS_DewPointDepression_IsbL-0150_RLatLon0.09_PT020H.grib2 2026-04-15 20:45 140K
20260415T18Z_MSC_RDPS_DewPointDepression_IsbL-0175_RLatLon0.09_PT020H.grib2 2026-04-15 20:45 169K
20260415T18Z_MSC_RDPS_DewPointDepression_IsbL-0200_RLatLon0.09_PT020H.grib2 2026-04-15 20:45 200K
20260415T18Z_MSC_RDPS_DewPointDepression_IsbL-0225_RLatLon0.09_PT020H.grib2 2026-04-15 20:45 240K
20260415T18Z_MSC_RDPS_DewPointDepression_IsbL-0250_RLatLon0.09_PT020H.grib2 2026-04-15 20:45 289K
20260415T18Z_MSC_RDPS_DewPointDepression_IsbL-0275_RLatLon0.09_PT020H.grib2 2026-04-15 20:45 303K
20260415T18Z_MSC_RDPS_DewPointDepression_IsbL-0300_RLatLon0.09_PT020H.grib2 2026-04-15 20:45 318K
20260415T18Z_MSC_RDPS_DewPointDepression_IsbL-0350_RLatLon0.09_PT020H.grib2 2026-04-15 20:45 316K
20260415T18Z_MSC_RDPS_DewPointDepression_IsbL-0400_RLatLon0.09_PT020H.grib2 2026-04-15 20:45 329K
20260415T18Z_MSC_RDPS_DewPointDepression_IsbL-0450_RLatLon0.09_PT020H.grib2 2026-04-15 20:45 338K
20260415T18Z_MSC_RDPS_DewPointDepression_IsbL-0500_RLatLon0.09_PT020H.grib2 2026-04-15 20:45 342K
20260415T18Z_MSC_RDPS_DewPointDepression_IsbL-0550_RLatLon0.09_PT020H.grib2 2026-04-15 20:45 358K
20260415T18Z_MSC_RDPS_DewPointDepression_IsbL-0600_RLatLon0.09_PT020H.grib2 2026-04-15 20:45 375K
20260415T18Z_MSC_RDPS_DewPointDepression_IsbL-0650_RLatLon0.09_PT020H.grib2 2026-04-15 20:45 380K
20260415T18Z_MSC_RDPS_DewPointDepression_IsbL-0700_RLatLon0.09_PT020H.grib2 2026-04-15 20:45 387K
20260415T18Z_MSC_RDPS_DewPointDepression_IsbL-0750_RLatLon0.09_PT020H.grib2 2026-04-15 20:45 410K
20260415T18Z_MSC_RDPS_DewPointDepression_IsbL-0800_RLatLon0.09_PT020H.grib2 2026-04-15 20:45 440K
20260415T18Z_MSC_RDPS_DewPointDepression_IsbL-0850_RLatLon0.09_PT020H.grib2 2026-04-15 20:45 468K
20260415T18Z_MSC_RDPS_DewPointDepression_IsbL-0875_RLatLon0.09_PT020H.grib2 2026-04-15 20:45 469K
20260415T18Z_MSC_RDPS_DewPointDepression_IsbL-0900_RLatLon0.09_PT020H.grib2 2026-04-15 20:45 462K
20260415T18Z_MSC_RDPS_DewPointDepression_IsbL-0925_RLatLon0.09_PT020H.grib2 2026-04-15 20:45 448K
20260415T18Z_MSC_RDPS_DewPointDepression_IsbL-0950_RLatLon0.09_PT020H.grib2 2026-04-15 20:45 444K
20260415T18Z_MSC_RDPS_DewPointDepression_IsbL-0970_RLatLon0.09_PT020H.grib2 2026-04-15 20:45 439K
20260415T18Z_MSC_RDPS_DewPointDepression_IsbL-0985_RLatLon0.09_PT020H.grib2 2026-04-15 20:45 436K
20260415T18Z_MSC_RDPS_DewPointDepression_IsbL-1000_RLatLon0.09_PT020H.grib2 2026-04-15 20:45 436K
20260415T18Z_MSC_RDPS_DewPointDepression_IsbL-1015_RLatLon0.09_PT020H.grib2 2026-04-15 20:45 430K
20260415T18Z_MSC_RDPS_DewPoint_AGL-2m_RLatLon0.09_PT020H.grib2 2026-04-15 20:45 409K
20260415T18Z_MSC_RDPS_DownwardLongwaveRadiationFlux-Accum_Sfc_RLatLon0.09_PT020H.grib2 2026-04-15 20:45 414K
20260415T18Z_MSC_RDPS_DownwardShortwaveRadiationFlux-Accum_NTAtm_RLatLon0.09_PT020H.grib2 2026-04-15 20:45 99K
20260415T18Z_MSC_RDPS_DownwardShortwaveRadiationFlux-Accum_Sfc_RLatLon0.09_PT020H.grib2 2026-04-15 20:45 567K
20260415T18Z_MSC_RDPS_FreezingRain-Accum1h_Sfc_RLatLon0.09_PT020H.grib2 2026-04-15 20:45 29K
20260415T18Z_MSC_RDPS_FreezingRain-Accum_Sfc_RLatLon0.09_PT020H.grib2 2026-04-15 20:45 87K
20260415T18Z_MSC_RDPS_GeopotentialHeight_IsbL-0001_RLatLon0.09_PT020H.grib2 2026-04-15 20:45 209K
20260415T18Z_MSC_RDPS_GeopotentialHeight_IsbL-0005_RLatLon0.09_PT020H.grib2 2026-04-15 20:45 267K
20260415T18Z_MSC_RDPS_GeopotentialHeight_IsbL-0010_RLatLon0.09_PT020H.grib2 2026-04-15 20:45 308K
20260415T18Z_MSC_RDPS_GeopotentialHeight_IsbL-0020_RLatLon0.09_PT020H.grib2 2026-04-15 20:45 307K
20260415T18Z_MSC_RDPS_GeopotentialHeight_IsbL-0030_RLatLon0.09_PT020H.grib2 2026-04-15 20:45 339K
20260415T18Z_MSC_RDPS_GeopotentialHeight_IsbL-0050_RLatLon0.09_PT020H.grib2 2026-04-15 20:45 239K
20260415T18Z_MSC_RDPS_GeopotentialHeight_IsbL-0100_RLatLon0.09_PT020H.grib2 2026-04-15 20:45 223K
20260415T18Z_MSC_RDPS_GeopotentialHeight_IsbL-0150_RLatLon0.09_PT020H.grib2 2026-04-15 20:45 262K
20260415T18Z_MSC_RDPS_GeopotentialHeight_IsbL-0175_RLatLon0.09_PT020H.grib2 2026-04-15 20:45 264K
20260415T18Z_MSC_RDPS_GeopotentialHeight_IsbL-0200_RLatLon0.09_PT020H.grib2 2026-04-15 20:45 265K
20260415T18Z_MSC_RDPS_GeopotentialHeight_IsbL-0225_RLatLon0.09_PT020H.grib2 2026-04-15 20:45 267K
20260415T18Z_MSC_RDPS_GeopotentialHeight_IsbL-0250_RLatLon0.09_PT020H.grib2 2026-04-15 20:45 267K
20260415T18Z_MSC_RDPS_GeopotentialHeight_IsbL-0275_RLatLon0.09_PT020H.grib2 2026-04-15 20:45 266K
20260415T18Z_MSC_RDPS_GeopotentialHeight_IsbL-0300_RLatLon0.09_PT020H.grib2 2026-04-15 20:45 266K
20260415T18Z_MSC_RDPS_GeopotentialHeight_IsbL-0350_RLatLon0.09_PT020H.grib2 2026-04-15 20:45 261K
20260415T18Z_MSC_RDPS_GeopotentialHeight_IsbL-0400_RLatLon0.09_PT020H.grib2 2026-04-15 20:45 228K
20260415T18Z_MSC_RDPS_GeopotentialHeight_IsbL-0450_RLatLon0.09_PT020H.grib2 2026-04-15 20:45 223K
20260415T18Z_MSC_RDPS_GeopotentialHeight_IsbL-0500_RLatLon0.09_PT020H.grib2 2026-04-15 20:45 290K
20260415T18Z_MSC_RDPS_GeopotentialHeight_IsbL-0550_RLatLon0.09_PT020H.grib2 2026-04-15 20:45 285K
20260415T18Z_MSC_RDPS_GeopotentialHeight_IsbL-0600_RLatLon0.09_PT020H.grib2 2026-04-15 20:45 281K
20260415T18Z_MSC_RDPS_GeopotentialHeight_IsbL-0650_RLatLon0.09_PT020H.grib2 2026-04-15 20:45 279K
20260415T18Z_MSC_RDPS_GeopotentialHeight_IsbL-0700_RLatLon0.09_PT020H.grib2 2026-04-15 20:45 249K
20260415T18Z_MSC_RDPS_GeopotentialHeight_IsbL-0750_RLatLon0.09_PT020H.grib2 2026-04-15 20:45 251K
20260415T18Z_MSC_RDPS_GeopotentialHeight_IsbL-0800_RLatLon0.09_PT020H.grib2 2026-04-15 20:45 342K
20260415T18Z_MSC_RDPS_GeopotentialHeight_IsbL-0850_RLatLon0.09_PT020H.grib2 2026-04-15 20:45 352K
20260415T18Z_MSC_RDPS_GeopotentialHeight_IsbL-0875_RLatLon0.09_PT020H.grib2 2026-04-15 20:45 388K
20260415T18Z_MSC_RDPS_GeopotentialHeight_IsbL-0900_RLatLon0.09_PT020H.grib2 2026-04-15 20:45 393K
20260415T18Z_MSC_RDPS_GeopotentialHeight_IsbL-0925_RLatLon0.09_PT020H.grib2 2026-04-15 20:45 397K
20260415T18Z_MSC_RDPS_GeopotentialHeight_IsbL-0950_RLatLon0.09_PT020H.grib2 2026-04-15 20:45 400K
20260415T18Z_MSC_RDPS_GeopotentialHeight_IsbL-0970_RLatLon0.09_PT020H.grib2 2026-04-15 20:45 405K
20260415T18Z_MSC_RDPS_GeopotentialHeight_IsbL-0985_RLatLon0.09_PT020H.grib2 2026-04-15 20:45 414K
20260415T18Z_MSC_RDPS_GeopotentialHeight_IsbL-1000_RLatLon0.09_PT020H.grib2 2026-04-15 20:45 428K
20260415T18Z_MSC_RDPS_GeopotentialHeight_IsbL-1015_RLatLon0.09_PT020H.grib2 2026-04-15 20:45 445K
20260415T18Z_MSC_RDPS_Humidex_Sfc_RLatLon0.09_PT020H.grib2 2026-04-15 20:45 2.4M
20260415T18Z_MSC_RDPS_IcePellets-Accum1h_Sfc_RLatLon0.09_PT020H.grib2 2026-04-15 20:45 7.4K
20260415T18Z_MSC_RDPS_IcePellets-Accum_Sfc_RLatLon0.09_PT020H.grib2 2026-04-15 20:45 17K
20260415T18Z_MSC_RDPS_KIndex_Sfc_RLatLon0.09_PT020H.grib2 2026-04-15 20:45 2.4M
20260415T18Z_MSC_RDPS_LatentHeatNetFlux_Sfc_RLatLon0.09_PT020H.grib2 2026-04-15 20:45 433K
20260415T18Z_MSC_RDPS_LiftedIndex-MU-VT_IsbL-0500_RLatLon0.09_PT020H.grib2 2026-04-15 20:45 2.4M
20260415T18Z_MSC_RDPS_NetLongwaveRadiationFlux-Accum_Sfc_RLatLon0.09_PT020H.grib2 2026-04-15 20:45 546K
20260415T18Z_MSC_RDPS_NetShortwaveRadiationFlux-Accum_Sfc_RLatLon0.09_PT020H.grib2 2026-04-15 20:45 568K
20260415T18Z_MSC_RDPS_PlanetaryBoundaryLayerHeight_Sfc_RLatLon0.09_PT020H.grib2 2026-04-15 20:45 1.1M
20260415T18Z_MSC_RDPS_Precip-Accum1h_Sfc_RLatLon0.09_PT020H.grib2 2026-04-15 20:45 1.3M
20260415T18Z_MSC_RDPS_Precip-Accum_Sfc_RLatLon0.09_PT020H.grib2 2026-04-15 20:45 1.9M
20260415T18Z_MSC_RDPS_PrecipRate_Sfc_RLatLon0.09_PT020H.grib2 2026-04-15 20:45 170K
20260415T18Z_MSC_RDPS_PrecipType-Instant_Sfc_RLatLon0.09_PT020H.grib2 2026-04-15 20:45 581K
20260415T18Z_MSC_RDPS_Pressure-Trend3h_Sfc_RLatLon0.09_PT020H.grib2 2026-04-15 20:45 1.2M
20260415T18Z_MSC_RDPS_Pressure_MSL_RLatLon0.09_PT020H.grib2 2026-04-15 20:45 295K
20260415T18Z_MSC_RDPS_Pressure_PVU-1.5_RLatLon0.09_PT020H.grib2 2026-04-15 20:45 2.3M
20260415T18Z_MSC_RDPS_Pressure_PVU-1_RLatLon0.09_PT020H.grib2 2026-04-15 20:45 2.4M
20260415T18Z_MSC_RDPS_Pressure_PVU-2_RLatLon0.09_PT020H.grib2 2026-04-15 20:45 2.4M
20260415T18Z_MSC_RDPS_Pressure_Sfc_RLatLon0.09_PT020H.grib2 2026-04-15 20:45 500K
20260415T18Z_MSC_RDPS_RadiativeTemp_Sfc_RLatLon0.09_PT020H.grib2 2026-04-15 20:45 318K
20260415T18Z_MSC_RDPS_Rain-Accum1h_Sfc_RLatLon0.09_PT020H.grib2 2026-04-15 20:45 604K
20260415T18Z_MSC_RDPS_Rain-Accum_Sfc_RLatLon0.09_PT020H.grib2 2026-04-15 20:45 1.4M
20260415T18Z_MSC_RDPS_RelativeHumidity_AGL-2m_RLatLon0.09_PT020H.grib2 2026-04-15 20:45 1.0M
20260415T18Z_MSC_RDPS_RelativeHumidity_IsbL-0010_RLatLon0.09_PT020H.grib2 2026-04-15 20:45 512K
20260415T18Z_MSC_RDPS_RelativeHumidity_IsbL-0020_RLatLon0.09_PT020H.grib2 2026-04-15 20:45 402K
20260415T18Z_MSC_RDPS_RelativeHumidity_IsbL-0030_RLatLon0.09_PT020H.grib2 2026-04-15 20:45 362K
20260415T18Z_MSC_RDPS_RelativeHumidity_IsbL-0050_RLatLon0.09_PT020H.grib2 2026-04-15 20:45 396K
20260415T18Z_MSC_RDPS_RelativeHumidity_IsbL-0100_RLatLon0.09_PT020H.grib2 2026-04-15 20:45 364K
20260415T18Z_MSC_RDPS_RelativeHumidity_IsbL-0150_RLatLon0.09_PT020H.grib2 2026-04-15 20:45 371K
20260415T18Z_MSC_RDPS_RelativeHumidity_IsbL-0175_RLatLon0.09_PT020H.grib2 2026-04-15 20:45 446K
20260415T18Z_MSC_RDPS_RelativeHumidity_IsbL-0200_RLatLon0.09_PT020H.grib2 2026-04-15 20:45 518K
20260415T18Z_MSC_RDPS_RelativeHumidity_IsbL-0225_RLatLon0.09_PT020H.grib2 2026-04-15 20:45 586K
20260415T18Z_MSC_RDPS_RelativeHumidity_IsbL-0250_RLatLon0.09_PT020H.grib2 2026-04-15 20:45 663K
20260415T18Z_MSC_RDPS_RelativeHumidity_IsbL-0275_RLatLon0.09_PT020H.grib2 2026-04-15 20:45 698K
20260415T18Z_MSC_RDPS_RelativeHumidity_IsbL-0300_RLatLon0.09_PT020H.grib2 2026-04-15 20:45 747K
20260415T18Z_MSC_RDPS_RelativeHumidity_IsbL-0350_RLatLon0.09_PT020H.grib2 2026-04-15 20:45 764K
20260415T18Z_MSC_RDPS_RelativeHumidity_IsbL-0400_RLatLon0.09_PT020H.grib2 2026-04-15 20:45 777K
20260415T18Z_MSC_RDPS_RelativeHumidity_IsbL-0450_RLatLon0.09_PT020H.grib2 2026-04-15 20:45 786K
20260415T18Z_MSC_RDPS_RelativeHumidity_IsbL-0500_RLatLon0.09_PT020H.grib2 2026-04-15 20:45 797K
20260415T18Z_MSC_RDPS_RelativeHumidity_IsbL-0550_RLatLon0.09_PT020H.grib2 2026-04-15 20:45 831K
20260415T18Z_MSC_RDPS_RelativeHumidity_IsbL-0600_RLatLon0.09_PT020H.grib2 2026-04-15 20:45 854K
20260415T18Z_MSC_RDPS_RelativeHumidity_IsbL-0650_RLatLon0.09_PT020H.grib2 2026-04-15 20:45 863K
20260415T18Z_MSC_RDPS_RelativeHumidity_IsbL-0700_RLatLon0.09_PT020H.grib2 2026-04-15 20:45 883K
20260415T18Z_MSC_RDPS_RelativeHumidity_IsbL-0750_RLatLon0.09_PT020H.grib2 2026-04-15 20:45 931K
20260415T18Z_MSC_RDPS_RelativeHumidity_IsbL-0800_RLatLon0.09_PT020H.grib2 2026-04-15 20:45 1.0M
20260415T18Z_MSC_RDPS_RelativeHumidity_IsbL-0850_RLatLon0.09_PT020H.grib2 2026-04-15 20:45 1.0M
20260415T18Z_MSC_RDPS_RelativeHumidity_IsbL-0875_RLatLon0.09_PT020H.grib2 2026-04-15 20:45 1.1M
20260415T18Z_MSC_RDPS_RelativeHumidity_IsbL-0900_RLatLon0.09_PT020H.grib2 2026-04-15 20:45 1.1M
20260415T18Z_MSC_RDPS_RelativeHumidity_IsbL-0925_RLatLon0.09_PT020H.grib2 2026-04-15 20:45 1.1M
20260415T18Z_MSC_RDPS_RelativeHumidity_IsbL-0950_RLatLon0.09_PT020H.grib2 2026-04-15 20:45 1.1M
20260415T18Z_MSC_RDPS_RelativeHumidity_IsbL-0970_RLatLon0.09_PT020H.grib2 2026-04-15 20:45 1.1M
20260415T18Z_MSC_RDPS_RelativeHumidity_IsbL-0985_RLatLon0.09_PT020H.grib2 2026-04-15 20:45 1.1M
20260415T18Z_MSC_RDPS_RelativeHumidity_IsbL-1000_RLatLon0.09_PT020H.grib2 2026-04-15 20:45 1.0M
20260415T18Z_MSC_RDPS_RelativeHumidity_IsbL-1015_RLatLon0.09_PT020H.grib2 2026-04-15 20:45 1.0M
20260415T18Z_MSC_RDPS_Runoff-Accum_Sfc_RLatLon0.09_PT020H.grib2 2026-04-15 20:45 48K
20260415T18Z_MSC_RDPS_SWEATIndex_Sfc_RLatLon0.09_PT020H.grib2 2026-04-15 20:45 2.4M
20260415T18Z_MSC_RDPS_SeeingIndex_EAtm_RLatLon0.09_PT020H.grib2 2026-04-15 20:45 1.0M
20260415T18Z_MSC_RDPS_SensibleHeatNetFlux_Sfc_RLatLon0.09_PT020H.grib2 2026-04-15 20:45 329K
20260415T18Z_MSC_RDPS_ShowalterIndex_IsbL-0500_RLatLon0.09_PT020H.grib2 2026-04-15 20:45 2.6M
20260415T18Z_MSC_RDPS_SkyTransparencyIndex_EAtm_RLatLon0.09_PT020H.grib2 2026-04-15 20:45 707K
20260415T18Z_MSC_RDPS_Snow-Accum1h_Sfc_RLatLon0.09_PT020H.grib2 2026-04-15 20:45 454K
20260415T18Z_MSC_RDPS_Snow-Accum_Sfc_RLatLon0.09_PT020H.grib2 2026-04-15 20:45 705K
20260415T18Z_MSC_RDPS_SnowDensity_Sfc_RLatLon0.09_PT020H.grib2 2026-04-15 20:45 175K
20260415T18Z_MSC_RDPS_SnowDepth_Sfc_RLatLon0.09_PT020H.grib2 2026-04-15 20:45 730K
20260415T18Z_MSC_RDPS_SoilTemp_DBS-0to10cm_RLatLon0.09_PT020H.grib2 2026-04-15 20:45 217K
20260415T18Z_MSC_RDPS_SoilTemp_Sfc_RLatLon0.09_PT020H.grib2 2026-04-15 20:45 286K
20260415T18Z_MSC_RDPS_SoilVolumetricIceContent_Sfc_RLatLon0.09_PT020H.grib2 2026-04-15 20:45 176K
20260415T18Z_MSC_RDPS_SoilVolumetricWaterContent_DBS-0to10cm_RLatLon0.09_PT020H.grib2 2026-04-15 20:45 244K
20260415T18Z_MSC_RDPS_SoilVolumetricWaterContent_DBS-0to1cm_RLatLon0.09_PT020H.grib2 2026-04-15 20:45 334K
20260415T18Z_MSC_RDPS_SpecificHumidity_AGL-120m_RLatLon0.09_PT020H.grib2 2026-04-15 20:45 486K
20260415T18Z_MSC_RDPS_SpecificHumidity_AGL-2m_RLatLon0.09_PT020H.grib2 2026-04-15 20:45 652K
20260415T18Z_MSC_RDPS_SpecificHumidity_AGL-40m_RLatLon0.09_PT020H.grib2 2026-04-15 20:45 492K
20260415T18Z_MSC_RDPS_SpecificHumidity_AGL-80m_RLatLon0.09_PT020H.grib2 2026-04-15 20:45 489K
20260415T18Z_MSC_RDPS_SpecificHumidity_IsbL-0001_RLatLon0.09_PT020H.grib2 2026-04-15 20:45 300K
20260415T18Z_MSC_RDPS_SpecificHumidity_IsbL-0005_RLatLon0.09_PT020H.grib2 2026-04-15 20:45 343K
20260415T18Z_MSC_RDPS_SpecificHumidity_IsbL-0010_RLatLon0.09_PT020H.grib2 2026-04-15 20:45 376K
20260415T18Z_MSC_RDPS_SpecificHumidity_IsbL-0020_RLatLon0.09_PT020H.grib2 2026-04-15 20:45 382K
20260415T18Z_MSC_RDPS_SpecificHumidity_IsbL-0030_RLatLon0.09_PT020H.grib2 2026-04-15 20:45 443K
20260415T18Z_MSC_RDPS_SpecificHumidity_IsbL-0050_RLatLon0.09_PT020H.grib2 2026-04-15 20:45 500K
20260415T18Z_MSC_RDPS_SpecificHumidity_IsbL-0100_RLatLon0.09_PT020H.grib2 2026-04-15 20:45 491K
20260415T18Z_MSC_RDPS_SpecificHumidity_IsbL-0150_RLatLon0.09_PT020H.grib2 2026-04-15 20:45 425K
20260415T18Z_MSC_RDPS_SpecificHumidity_IsbL-0175_RLatLon0.09_PT020H.grib2 2026-04-15 20:45 511K
20260415T18Z_MSC_RDPS_SpecificHumidity_IsbL-0200_RLatLon0.09_PT020H.grib2 2026-04-15 20:45 420K
20260415T18Z_MSC_RDPS_SpecificHumidity_IsbL-0225_RLatLon0.09_PT020H.grib2 2026-04-15 20:45 525K
20260415T18Z_MSC_RDPS_SpecificHumidity_IsbL-0250_RLatLon0.09_PT020H.grib2 2026-04-15 20:45 530K
20260415T18Z_MSC_RDPS_SpecificHumidity_IsbL-0275_RLatLon0.09_PT020H.grib2 2026-04-15 20:45 450K
20260415T18Z_MSC_RDPS_SpecificHumidity_IsbL-0300_RLatLon0.09_PT020H.grib2 2026-04-15 20:45 521K
20260415T18Z_MSC_RDPS_SpecificHumidity_IsbL-0350_RLatLon0.09_PT020H.grib2 2026-04-15 20:45 510K
20260415T18Z_MSC_RDPS_SpecificHumidity_IsbL-0400_RLatLon0.09_PT020H.grib2 2026-04-15 20:45 492K
20260415T18Z_MSC_RDPS_SpecificHumidity_IsbL-0450_RLatLon0.09_PT020H.grib2 2026-04-15 20:45 547K
20260415T18Z_MSC_RDPS_SpecificHumidity_IsbL-0500_RLatLon0.09_PT020H.grib2 2026-04-15 20:45 487K
20260415T18Z_MSC_RDPS_SpecificHumidity_IsbL-0550_RLatLon0.09_PT020H.grib2 2026-04-15 20:45 548K
20260415T18Z_MSC_RDPS_SpecificHumidity_IsbL-0600_RLatLon0.09_PT020H.grib2 2026-04-15 20:45 620K
20260415T18Z_MSC_RDPS_SpecificHumidity_IsbL-0650_RLatLon0.09_PT020H.grib2 2026-04-15 20:45 535K
20260415T18Z_MSC_RDPS_SpecificHumidity_IsbL-0700_RLatLon0.09_PT020H.grib2 2026-04-15 20:45 574K
20260415T18Z_MSC_RDPS_SpecificHumidity_IsbL-0750_RLatLon0.09_PT020H.grib2 2026-04-15 20:45 631K
20260415T18Z_MSC_RDPS_SpecificHumidity_IsbL-0800_RLatLon0.09_PT020H.grib2 2026-04-15 20:45 707K
20260415T18Z_MSC_RDPS_SpecificHumidity_IsbL-0850_RLatLon0.09_PT020H.grib2 2026-04-15 20:45 788K
20260415T18Z_MSC_RDPS_SpecificHumidity_IsbL-0875_RLatLon0.09_PT020H.grib2 2026-04-15 20:45 809K
20260415T18Z_MSC_RDPS_SpecificHumidity_IsbL-0900_RLatLon0.09_PT020H.grib2 2026-04-15 20:45 822K
20260415T18Z_MSC_RDPS_SpecificHumidity_IsbL-0925_RLatLon0.09_PT020H.grib2 2026-04-15 20:45 825K
20260415T18Z_MSC_RDPS_SpecificHumidity_IsbL-0950_RLatLon0.09_PT020H.grib2 2026-04-15 20:45 830K
20260415T18Z_MSC_RDPS_SpecificHumidity_IsbL-0970_RLatLon0.09_PT020H.grib2 2026-04-15 20:45 826K
20260415T18Z_MSC_RDPS_SpecificHumidity_IsbL-0985_RLatLon0.09_PT020H.grib2 2026-04-15 20:45 821K
20260415T18Z_MSC_RDPS_SpecificHumidity_IsbL-1000_RLatLon0.09_PT020H.grib2 2026-04-15 20:45 814K
20260415T18Z_MSC_RDPS_SpecificHumidity_IsbL-1015_RLatLon0.09_PT020H.grib2 2026-04-15 20:45 665K
20260415T18Z_MSC_RDPS_SpecificHumidity_Sfc_RLatLon0.09_PT020H.grib2 2026-04-15 20:45 294K
20260415T18Z_MSC_RDPS_StormRelativeHelicity_EtaL-10000_RLatLon0.09_PT020H.grib2 2026-04-15 20:45 1.1M
20260415T18Z_MSC_RDPS_StormSeverityIndex_EtaL-10000_RLatLon0.09_PT020H.grib2 2026-04-15 20:45 1.2M
20260415T18Z_MSC_RDPS_Thickness_IsbL-0850to0700_RLatLon0.09_PT020H.grib2 2026-04-15 20:45 173K
20260415T18Z_MSC_RDPS_Thickness_IsbL-1000to0500_RLatLon0.09_PT020H.grib2 2026-04-15 20:45 198K
20260415T18Z_MSC_RDPS_Thickness_IsbL-1000to0850_RLatLon0.09_PT020H.grib2 2026-04-15 20:45 186K
20260415T18Z_MSC_RDPS_TotalCloudCover_Sfc_RLatLon0.09_PT020H.grib2 2026-04-15 20:45 668K
20260415T18Z_MSC_RDPS_TotalTotalsIndex_Sfc_RLatLon0.09_PT020H.grib2 2026-04-15 20:45 2.4M
20260415T18Z_MSC_RDPS_UVIndex-ClearSky_Sfc_RLatLon0.09_PT020H.grib2 2026-04-15 20:45 191K
20260415T18Z_MSC_RDPS_UVIndex_Sfc_RLatLon0.09_PT020H.grib2 2026-04-15 20:45 419K
20260415T18Z_MSC_RDPS_UpwardLongwaveRadiationFlux_NTAtm_RLatLon0.09_PT020H.grib2 2026-04-15 20:45 473K
20260415T18Z_MSC_RDPS_UpwardShortwaveRadiationFlux_NTAtm_RLatLon0.09_PT020H.grib2 2026-04-15 20:45 390K
20260415T18Z_MSC_RDPS_VerticalVelocity_IsbL-0250_RLatLon0.09_PT020H.grib2 2026-04-15 20:45 541K
20260415T18Z_MSC_RDPS_VerticalVelocity_IsbL-0500_RLatLon0.09_PT020H.grib2 2026-04-15 20:45 536K
20260415T18Z_MSC_RDPS_VerticalVelocity_IsbL-0700_RLatLon0.09_PT020H.grib2 2026-04-15 20:45 580K
20260415T18Z_MSC_RDPS_VerticalVelocity_IsbL-0850_RLatLon0.09_PT020H.grib2 2026-04-15 20:45 685K
20260415T18Z_MSC_RDPS_VerticalWindShear_EtaL-6500_RLatLon0.09_PT020H.grib2 2026-04-15 20:45 1.2M
20260415T18Z_MSC_RDPS_WindChill_Sfc_RLatLon0.09_PT020H.grib2 2026-04-15 20:45 1.3M
20260415T18Z_MSC_RDPS_WindDir_AGL-10m_RLatLon0.09_PT020H.grib2 2026-04-15 20:45 1.0M
20260415T18Z_MSC_RDPS_WindDir_AGL-120m_RLatLon0.09_PT020H.grib2 2026-04-15 20:45 624K
20260415T18Z_MSC_RDPS_WindDir_AGL-40m_RLatLon0.09_PT020H.grib2 2026-04-15 20:45 656K
20260415T18Z_MSC_RDPS_WindDir_AGL-80m_RLatLon0.09_PT020H.grib2 2026-04-15 20:45 637K
20260415T18Z_MSC_RDPS_WindDir_IsbL-0001_RLatLon0.09_PT020H.grib2 2026-04-15 20:45 260K
20260415T18Z_MSC_RDPS_WindDir_IsbL-0005_RLatLon0.09_PT020H.grib2 2026-04-15 20:45 334K
20260415T18Z_MSC_RDPS_WindDir_IsbL-0010_RLatLon0.09_PT020H.grib2 2026-04-15 20:45 351K
20260415T18Z_MSC_RDPS_WindDir_IsbL-0020_RLatLon0.09_PT020H.grib2 2026-04-15 20:45 376K
20260415T18Z_MSC_RDPS_WindDir_IsbL-0030_RLatLon0.09_PT020H.grib2 2026-04-15 20:45 374K
20260415T18Z_MSC_RDPS_WindDir_IsbL-0050_RLatLon0.09_PT020H.grib2 2026-04-15 20:45 401K
20260415T18Z_MSC_RDPS_WindDir_IsbL-0100_RLatLon0.09_PT020H.grib2 2026-04-15 20:45 391K
20260415T18Z_MSC_RDPS_WindDir_IsbL-0150_RLatLon0.09_PT020H.grib2 2026-04-15 20:45 379K
20260415T18Z_MSC_RDPS_WindDir_IsbL-0175_RLatLon0.09_PT020H.grib2 2026-04-15 20:45 398K
20260415T18Z_MSC_RDPS_WindDir_IsbL-0200_RLatLon0.09_PT020H.grib2 2026-04-15 20:45 421K
20260415T18Z_MSC_RDPS_WindDir_IsbL-0225_RLatLon0.09_PT020H.grib2 2026-04-15 20:45 421K
20260415T18Z_MSC_RDPS_WindDir_IsbL-0250_RLatLon0.09_PT020H.grib2 2026-04-15 20:45 425K
20260415T18Z_MSC_RDPS_WindDir_IsbL-0275_RLatLon0.09_PT020H.grib2 2026-04-15 20:45 445K
20260415T18Z_MSC_RDPS_WindDir_IsbL-0300_RLatLon0.09_PT020H.grib2 2026-04-15 20:45 449K
20260415T18Z_MSC_RDPS_WindDir_IsbL-0350_RLatLon0.09_PT020H.grib2 2026-04-15 20:45 483K
20260415T18Z_MSC_RDPS_WindDir_IsbL-0400_RLatLon0.09_PT020H.grib2 2026-04-15 20:45 500K
20260415T18Z_MSC_RDPS_WindDir_IsbL-0450_RLatLon0.09_PT020H.grib2 2026-04-15 20:45 520K
20260415T18Z_MSC_RDPS_WindDir_IsbL-0500_RLatLon0.09_PT020H.grib2 2026-04-15 20:45 545K
20260415T18Z_MSC_RDPS_WindDir_IsbL-0550_RLatLon0.09_PT020H.grib2 2026-04-15 20:45 559K
20260415T18Z_MSC_RDPS_WindDir_IsbL-0600_RLatLon0.09_PT020H.grib2 2026-04-15 20:45 585K
20260415T18Z_MSC_RDPS_WindDir_IsbL-0650_RLatLon0.09_PT020H.grib2 2026-04-15 20:45 627K
20260415T18Z_MSC_RDPS_WindDir_IsbL-0700_RLatLon0.09_PT020H.grib2 2026-04-15 20:45 669K
20260415T18Z_MSC_RDPS_WindDir_IsbL-0750_RLatLon0.09_PT020H.grib2 2026-04-15 20:45 718K
20260415T18Z_MSC_RDPS_WindDir_IsbL-0800_RLatLon0.09_PT020H.grib2 2026-04-15 20:45 784K
20260415T18Z_MSC_RDPS_WindDir_IsbL-0850_RLatLon0.09_PT020H.grib2 2026-04-15 20:45 859K
20260415T18Z_MSC_RDPS_WindDir_IsbL-0875_RLatLon0.09_PT020H.grib2 2026-04-15 20:45 888K
20260415T18Z_MSC_RDPS_WindDir_IsbL-0900_RLatLon0.09_PT020H.grib2 2026-04-15 20:45 912K
20260415T18Z_MSC_RDPS_WindDir_IsbL-0925_RLatLon0.09_PT020H.grib2 2026-04-15 20:45 924K
20260415T18Z_MSC_RDPS_WindDir_IsbL-0950_RLatLon0.09_PT020H.grib2 2026-04-15 20:45 931K
20260415T18Z_MSC_RDPS_WindDir_IsbL-0970_RLatLon0.09_PT020H.grib2 2026-04-15 20:45 942K
20260415T18Z_MSC_RDPS_WindDir_IsbL-0985_RLatLon0.09_PT020H.grib2 2026-04-15 20:45 953K
20260415T18Z_MSC_RDPS_WindDir_IsbL-1000_RLatLon0.09_PT020H.grib2 2026-04-15 20:45 967K
20260415T18Z_MSC_RDPS_WindDir_IsbL-1015_RLatLon0.09_PT020H.grib2 2026-04-15 20:45 1.0M
20260415T18Z_MSC_RDPS_WindGust-Max_AGL-10m_RLatLon0.09_PT020H.grib2 2026-04-15 20:45 1.0M
20260415T18Z_MSC_RDPS_WindGust-Min_AGL-10m_RLatLon0.09_PT020H.grib2 2026-04-15 20:45 1.0M
20260415T18Z_MSC_RDPS_WindGust_AGL-10m_RLatLon0.09_PT020H.grib2 2026-04-15 20:45 1.0M
20260415T18Z_MSC_RDPS_WindSpeed_AGL-10m_RLatLon0.09_PT020H.grib2 2026-04-15 20:45 855K
20260415T18Z_MSC_RDPS_WindSpeed_AGL-120m_RLatLon0.09_PT020H.grib2 2026-04-15 20:45 549K
20260415T18Z_MSC_RDPS_WindSpeed_AGL-40m_RLatLon0.09_PT020H.grib2 2026-04-15 20:45 549K
20260415T18Z_MSC_RDPS_WindSpeed_AGL-80m_RLatLon0.09_PT020H.grib2 2026-04-15 20:45 549K
20260415T18Z_MSC_RDPS_WindSpeed_IsbL-0001_RLatLon0.09_PT020H.grib2 2026-04-15 20:45 245K
20260415T18Z_MSC_RDPS_WindSpeed_IsbL-0005_RLatLon0.09_PT020H.grib2 2026-04-15 20:45 334K
20260415T18Z_MSC_RDPS_WindSpeed_IsbL-0010_RLatLon0.09_PT020H.grib2 2026-04-15 20:45 345K
20260415T18Z_MSC_RDPS_WindSpeed_IsbL-0020_RLatLon0.09_PT020H.grib2 2026-04-15 20:45 329K
20260415T18Z_MSC_RDPS_WindSpeed_IsbL-0030_RLatLon0.09_PT020H.grib2 2026-04-15 20:45 334K
20260415T18Z_MSC_RDPS_WindSpeed_IsbL-0050_RLatLon0.09_PT020H.grib2 2026-04-15 20:45 379K
20260415T18Z_MSC_RDPS_WindSpeed_IsbL-0100_RLatLon0.09_PT020H.grib2 2026-04-15 20:45 485K
20260415T18Z_MSC_RDPS_WindSpeed_IsbL-0150_RLatLon0.09_PT020H.grib2 2026-04-15 20:45 465K
20260415T18Z_MSC_RDPS_WindSpeed_IsbL-0175_RLatLon0.09_PT020H.grib2 2026-04-15 20:45 387K
20260415T18Z_MSC_RDPS_WindSpeed_IsbL-0200_RLatLon0.09_PT020H.grib2 2026-04-15 20:45 407K
20260415T18Z_MSC_RDPS_WindSpeed_IsbL-0225_RLatLon0.09_PT020H.grib2 2026-04-15 20:45 436K
20260415T18Z_MSC_RDPS_WindSpeed_IsbL-0250_RLatLon0.09_PT020H.grib2 2026-04-15 20:45 440K
20260415T18Z_MSC_RDPS_WindSpeed_IsbL-0275_RLatLon0.09_PT020H.grib2 2026-04-15 20:45 457K
20260415T18Z_MSC_RDPS_WindSpeed_IsbL-0300_RLatLon0.09_PT020H.grib2 2026-04-15 20:45 455K
20260415T18Z_MSC_RDPS_WindSpeed_IsbL-0350_RLatLon0.09_PT020H.grib2 2026-04-15 20:45 469K
20260415T18Z_MSC_RDPS_WindSpeed_IsbL-0400_RLatLon0.09_PT020H.grib2 2026-04-15 20:45 453K
20260415T18Z_MSC_RDPS_WindSpeed_IsbL-0450_RLatLon0.09_PT020H.grib2 2026-04-15 20:45 453K
20260415T18Z_MSC_RDPS_WindSpeed_IsbL-0500_RLatLon0.09_PT020H.grib2 2026-04-15 20:45 455K
20260415T18Z_MSC_RDPS_WindSpeed_IsbL-0550_RLatLon0.09_PT020H.grib2 2026-04-15 20:45 573K
20260415T18Z_MSC_RDPS_WindSpeed_IsbL-0600_RLatLon0.09_PT020H.grib2 2026-04-15 20:45 584K
20260415T18Z_MSC_RDPS_WindSpeed_IsbL-0650_RLatLon0.09_PT020H.grib2 2026-04-15 20:45 649K
20260415T18Z_MSC_RDPS_WindSpeed_IsbL-0700_RLatLon0.09_PT020H.grib2 2026-04-15 20:45 669K
20260415T18Z_MSC_RDPS_WindSpeed_IsbL-0750_RLatLon0.09_PT020H.grib2 2026-04-15 20:45 700K
20260415T18Z_MSC_RDPS_WindSpeed_IsbL-0800_RLatLon0.09_PT020H.grib2 2026-04-15 20:45 747K
20260415T18Z_MSC_RDPS_WindSpeed_IsbL-0850_RLatLon0.09_PT020H.grib2 2026-04-15 20:45 812K
20260415T18Z_MSC_RDPS_WindSpeed_IsbL-0875_RLatLon0.09_PT020H.grib2 2026-04-15 20:45 837K
20260415T18Z_MSC_RDPS_WindSpeed_IsbL-0900_RLatLon0.09_PT020H.grib2 2026-04-15 20:45 857K
20260415T18Z_MSC_RDPS_WindSpeed_IsbL-0925_RLatLon0.09_PT020H.grib2 2026-04-15 20:45 868K
20260415T18Z_MSC_RDPS_WindSpeed_IsbL-0950_RLatLon0.09_PT020H.grib2 2026-04-15 20:45 869K
20260415T18Z_MSC_RDPS_WindSpeed_IsbL-0970_RLatLon0.09_PT020H.grib2 2026-04-15 20:45 866K
20260415T18Z_MSC_RDPS_WindSpeed_IsbL-0985_RLatLon0.09_PT020H.grib2 2026-04-15 20:45 864K
20260415T18Z_MSC_RDPS_WindSpeed_IsbL-1000_RLatLon0.09_PT020H.grib2 2026-04-15 20:45 861K
20260415T18Z_MSC_RDPS_WindSpeed_IsbL-1015_RLatLon0.09_PT020H.grib2 2026-04-15 20:45 853K
20260415T18Z_MSC_RDPS_WindU_AGL-10m_RLatLon0.09_PT020H.grib2 2026-04-15 20:45 439K
20260415T18Z_MSC_RDPS_WindU_AGL-120m_RLatLon0.09_PT020H.grib2 2026-04-15 20:45 545K
20260415T18Z_MSC_RDPS_WindU_AGL-40m_RLatLon0.09_PT020H.grib2 2026-04-15 20:45 546K
20260415T18Z_MSC_RDPS_WindU_AGL-80m_RLatLon0.09_PT020H.grib2 2026-04-15 20:45 545K
20260415T18Z_MSC_RDPS_WindU_IsbL-0001_RLatLon0.09_PT020H.grib2 2026-04-15 20:45 262K
20260415T18Z_MSC_RDPS_WindU_IsbL-0005_RLatLon0.09_PT020H.grib2 2026-04-15 20:45 300K
20260415T18Z_MSC_RDPS_WindU_IsbL-0010_RLatLon0.09_PT020H.grib2 2026-04-15 20:45 310K
20260415T18Z_MSC_RDPS_WindU_IsbL-0020_RLatLon0.09_PT020H.grib2 2026-04-15 20:45 330K
20260415T18Z_MSC_RDPS_WindU_IsbL-0030_RLatLon0.09_PT020H.grib2 2026-04-15 20:45 259K
20260415T18Z_MSC_RDPS_WindU_IsbL-0050_RLatLon0.09_PT020H.grib2 2026-04-15 20:45 370K
20260415T18Z_MSC_RDPS_WindU_IsbL-0100_RLatLon0.09_PT020H.grib2 2026-04-15 20:45 343K
20260415T18Z_MSC_RDPS_WindU_IsbL-0150_RLatLon0.09_PT020H.grib2 2026-04-15 20:45 383K
20260415T18Z_MSC_RDPS_WindU_IsbL-0175_RLatLon0.09_PT020H.grib2 2026-04-15 20:45 404K
20260415T18Z_MSC_RDPS_WindU_IsbL-0200_RLatLon0.09_PT020H.grib2 2026-04-15 20:45 421K
20260415T18Z_MSC_RDPS_WindU_IsbL-0225_RLatLon0.09_PT020H.grib2 2026-04-15 20:45 331K
20260415T18Z_MSC_RDPS_WindU_IsbL-0250_RLatLon0.09_PT020H.grib2 2026-04-15 20:45 333K
20260415T18Z_MSC_RDPS_WindU_IsbL-0275_RLatLon0.09_PT020H.grib2 2026-04-15 20:45 348K
20260415T18Z_MSC_RDPS_WindU_IsbL-0300_RLatLon0.09_PT020H.grib2 2026-04-15 20:45 344K
20260415T18Z_MSC_RDPS_WindU_IsbL-0350_RLatLon0.09_PT020H.grib2 2026-04-15 20:45 455K
20260415T18Z_MSC_RDPS_WindU_IsbL-0400_RLatLon0.09_PT020H.grib2 2026-04-15 20:45 459K
20260415T18Z_MSC_RDPS_WindU_IsbL-0450_RLatLon0.09_PT020H.grib2 2026-04-15 20:45 460K
20260415T18Z_MSC_RDPS_WindU_IsbL-0500_RLatLon0.09_PT020H.grib2 2026-04-15 20:45 462K
20260415T18Z_MSC_RDPS_WindU_IsbL-0550_RLatLon0.09_PT020H.grib2 2026-04-15 20:45 464K
20260415T18Z_MSC_RDPS_WindU_IsbL-0600_RLatLon0.09_PT020H.grib2 2026-04-15 20:45 473K
20260415T18Z_MSC_RDPS_WindU_IsbL-0650_RLatLon0.09_PT020H.grib2 2026-04-15 20:45 475K
20260415T18Z_MSC_RDPS_WindU_IsbL-0700_RLatLon0.09_PT020H.grib2 2026-04-15 20:45 494K
20260415T18Z_MSC_RDPS_WindU_IsbL-0750_RLatLon0.09_PT020H.grib2 2026-04-15 20:45 521K
20260415T18Z_MSC_RDPS_WindU_IsbL-0800_RLatLon0.09_PT020H.grib2 2026-04-15 20:45 569K
20260415T18Z_MSC_RDPS_WindU_IsbL-0850_RLatLon0.09_PT020H.grib2 2026-04-15 20:45 623K
20260415T18Z_MSC_RDPS_WindU_IsbL-0875_RLatLon0.09_PT020H.grib2 2026-04-15 20:45 645K
20260415T18Z_MSC_RDPS_WindU_IsbL-0900_RLatLon0.09_PT020H.grib2 2026-04-15 20:45 661K
20260415T18Z_MSC_RDPS_WindU_IsbL-0925_RLatLon0.09_PT020H.grib2 2026-04-15 20:45 668K
20260415T18Z_MSC_RDPS_WindU_IsbL-0950_RLatLon0.09_PT020H.grib2 2026-04-15 20:45 808K
20260415T18Z_MSC_RDPS_WindU_IsbL-0970_RLatLon0.09_PT020H.grib2 2026-04-15 20:45 805K
20260415T18Z_MSC_RDPS_WindU_IsbL-0985_RLatLon0.09_PT020H.grib2 2026-04-15 20:45 802K
20260415T18Z_MSC_RDPS_WindU_IsbL-1000_RLatLon0.09_PT020H.grib2 2026-04-15 20:45 847K
20260415T18Z_MSC_RDPS_WindU_IsbL-1015_RLatLon0.09_PT020H.grib2 2026-04-15 20:45 840K
20260415T18Z_MSC_RDPS_WindV_AGL-10m_RLatLon0.09_PT020H.grib2 2026-04-15 20:45 436K
20260415T18Z_MSC_RDPS_WindV_AGL-120m_RLatLon0.09_PT020H.grib2 2026-04-15 20:45 541K
20260415T18Z_MSC_RDPS_WindV_AGL-40m_RLatLon0.09_PT020H.grib2 2026-04-15 20:45 543K
20260415T18Z_MSC_RDPS_WindV_AGL-80m_RLatLon0.09_PT020H.grib2 2026-04-15 20:45 542K
20260415T18Z_MSC_RDPS_WindV_IsbL-0001_RLatLon0.09_PT020H.grib2 2026-04-15 20:45 206K
20260415T18Z_MSC_RDPS_WindV_IsbL-0005_RLatLon0.09_PT020H.grib2 2026-04-15 20:45 234K
20260415T18Z_MSC_RDPS_WindV_IsbL-0010_RLatLon0.09_PT020H.grib2 2026-04-15 20:45 308K
20260415T18Z_MSC_RDPS_WindV_IsbL-0020_RLatLon0.09_PT020H.grib2 2026-04-15 20:45 358K
20260415T18Z_MSC_RDPS_WindV_IsbL-0030_RLatLon0.09_PT020H.grib2 2026-04-15 20:45 364K
20260415T18Z_MSC_RDPS_WindV_IsbL-0050_RLatLon0.09_PT020H.grib2 2026-04-15 20:45 368K
20260415T18Z_MSC_RDPS_WindV_IsbL-0100_RLatLon0.09_PT020H.grib2 2026-04-15 20:45 434K
20260415T18Z_MSC_RDPS_WindV_IsbL-0150_RLatLon0.09_PT020H.grib2 2026-04-15 20:45 380K
20260415T18Z_MSC_RDPS_WindV_IsbL-0175_RLatLon0.09_PT020H.grib2 2026-04-15 20:45 402K
20260415T18Z_MSC_RDPS_WindV_IsbL-0200_RLatLon0.09_PT020H.grib2 2026-04-15 20:45 422K
20260415T18Z_MSC_RDPS_WindV_IsbL-0225_RLatLon0.09_PT020H.grib2 2026-04-15 20:45 332K
20260415T18Z_MSC_RDPS_WindV_IsbL-0250_RLatLon0.09_PT020H.grib2 2026-04-15 20:45 332K
20260415T18Z_MSC_RDPS_WindV_IsbL-0275_RLatLon0.09_PT020H.grib2 2026-04-15 20:45 345K
20260415T18Z_MSC_RDPS_WindV_IsbL-0300_RLatLon0.09_PT020H.grib2 2026-04-15 20:45 343K
20260415T18Z_MSC_RDPS_WindV_IsbL-0350_RLatLon0.09_PT020H.grib2 2026-04-15 20:45 352K
20260415T18Z_MSC_RDPS_WindV_IsbL-0400_RLatLon0.09_PT020H.grib2 2026-04-15 20:45 455K
20260415T18Z_MSC_RDPS_WindV_IsbL-0450_RLatLon0.09_PT020H.grib2 2026-04-15 20:45 457K
20260415T18Z_MSC_RDPS_WindV_IsbL-0500_RLatLon0.09_PT020H.grib2 2026-04-15 20:45 460K
20260415T18Z_MSC_RDPS_WindV_IsbL-0550_RLatLon0.09_PT020H.grib2 2026-04-15 20:45 461K
20260415T18Z_MSC_RDPS_WindV_IsbL-0600_RLatLon0.09_PT020H.grib2 2026-04-15 20:45 452K
20260415T18Z_MSC_RDPS_WindV_IsbL-0650_RLatLon0.09_PT020H.grib2 2026-04-15 20:45 472K
20260415T18Z_MSC_RDPS_WindV_IsbL-0700_RLatLon0.09_PT020H.grib2 2026-04-15 20:45 490K
20260415T18Z_MSC_RDPS_WindV_IsbL-0750_RLatLon0.09_PT020H.grib2 2026-04-15 20:45 518K
20260415T18Z_MSC_RDPS_WindV_IsbL-0800_RLatLon0.09_PT020H.grib2 2026-04-15 20:45 564K
20260415T18Z_MSC_RDPS_WindV_IsbL-0850_RLatLon0.09_PT020H.grib2 2026-04-15 20:45 620K
20260415T18Z_MSC_RDPS_WindV_IsbL-0875_RLatLon0.09_PT020H.grib2 2026-04-15 20:45 641K
20260415T18Z_MSC_RDPS_WindV_IsbL-0900_RLatLon0.09_PT020H.grib2 2026-04-15 20:45 657K
20260415T18Z_MSC_RDPS_WindV_IsbL-0925_RLatLon0.09_PT020H.grib2 2026-04-15 20:45 664K
20260415T18Z_MSC_RDPS_WindV_IsbL-0950_RLatLon0.09_PT020H.grib2 2026-04-15 20:45 805K
20260415T18Z_MSC_RDPS_WindV_IsbL-0970_RLatLon0.09_PT020H.grib2 2026-04-15 20:45 801K
20260415T18Z_MSC_RDPS_WindV_IsbL-0985_RLatLon0.09_PT020H.grib2 2026-04-15 20:45 799K
20260415T18Z_MSC_RDPS_WindV_IsbL-1000_RLatLon0.09_PT020H.grib2 2026-04-15 20:45 843K
20260415T18Z_MSC_RDPS_WindV_IsbL-1015_RLatLon0.09_PT020H.grib2 2026-04-15 20:45 836K